Time,TemperatureF,DewpointF,PressureIn,WindDirection,WindDirectionDegrees,WindSpeedMPH,WindSpeedGustMPH,Humidity,HourlyPrecipIn,Conditions,Clouds,dailyrainin,SoftwareType,DateUTC
2013-04-09 00:03:00,71.0,66.0,30.13,East,97,0.0,1.0,84,0.00,,,0.00,,2013-04-09 04:03:00,
2013-04-09 00:13:00,71.0,66.0,30.13,East,97,0.0,1.0,84,0.00,,,0.00,,2013-04-09 04:13:00,
2013-04-09 00:23:00,71.0,66.0,30.13,East,88,0.0,6.0,85,0.00,,,0.00,,2013-04-09 04:23:00,
2013-04-09 00:32:00,71.0,66.0,30.13,East,88,0.0,6.0,85,0.00,,,0.00,,2013-04-09 04:32:00,
2013-04-09 00:43:00,71.0,66.0,30.13,East,88,0.0,6.0,85,0.00,,,0.00,,2013-04-09 04:43:00,
2013-04-09 00:53:00,71.0,66.0,30.13,East,88,0.0,6.0,85,0.00,,,0.00,,2013-04-09 04:53:00,
2013-04-09 01:02:00,72.0,68.0,30.12,ESE,108,0.0,3.0,87,0.00,,,0.00,,2013-04-09 05:02:00,
2013-04-09 01:12:00,72.0,68.0,30.12,ESE,103,2.0,5.0,87,0.00,,,0.00,,2013-04-09 05:12:00,
2013-04-09 01:22:00,72.0,68.0,30.12,ESE,103,2.0,5.0,87,0.00,,,0.00,,2013-04-09 05:22:00,
2013-04-09 01:32:00,72.0,67.0,30.12,East,91,1.0,5.0,84,0.00,,,0.00,,2013-04-09 05:32:00,
2013-04-09 01:43:00,72.0,67.0,30.11,East,101,1.0,6.0,84,0.00,,,0.00,,2013-04-09 05:43:00,
2013-04-09 01:52:00,72.0,67.0,30.11,East,101,1.0,6.0,84,0.00,,,0.00,,2013-04-09 05:52:00,
2013-04-09 02:02:00,72.0,67.0,30.10,ESE,105,1.0,4.0,84,0.00,,,0.00,,2013-04-09 06:02:00,
2013-04-09 02:12:00,72.0,67.0,30.09,ESE,102,1.0,5.0,84,0.00,,,0.00,,2013-04-09 06:12:00,
2013-04-09 02:22:00,72.0,67.0,30.09,ESE,102,1.0,5.0,84,0.00,,,0.00,,2013-04-09 06:22:00,
2013-04-09 02:32:00,71.0,66.0,30.10,East,97,0.0,3.0,85,0.00,,,0.00,,2013-04-09 06:32:00,
2013-04-09 02:42:00,71.0,66.0,30.10,East,97,0.0,3.0,85,0.00,,,0.00,,2013-04-09 06:42:00,
2013-04-09 02:52:00,71.0,66.0,30.09,East,97,0.0,1.0,85,0.00,,,0.00,,2013-04-09 06:52:00,
2013-04-09 03:02:00,70.0,66.0,30.09,East,97,0.0,1.0,87,0.00,,,0.00,,2013-04-09 07:02:00,
2013-04-09 03:13:00,70.0,66.0,30.09,East,97,0.0,1.0,87,0.00,,,0.00,,2013-04-09 07:13:00,
2013-04-09 03:22:00,69.0,65.0,30.08,East,97,0.0,2.0,88,0.00,,,0.00,,2013-04-09 07:22:00,
2013-04-09 03:32:00,69.0,66.0,30.08,East,97,0.0,1.0,89,0.00,,,0.00,,2013-04-09 07:32:00,
2013-04-09 03:42:00,69.0,66.0,30.08,East,97,0.0,1.0,89,0.00,,,0.00,,2013-04-09 07:42:00,
2013-04-09 03:53:00,69.0,66.0,30.07,East,97,0.0,2.0,91,0.00,,,0.00,,2013-04-09 07:53:00,
2013-04-09 04:03:00,69.0,66.0,30.07,East,97,0.0,2.0,91,0.00,,,0.00,,2013-04-09 08:03:00,
2013-04-09 04:12:00,69.0,66.0,30.07,East,97,0.0,2.0,91,0.00,,,0.00,,2013-04-09 08:12:00,
2013-04-09 04:22:00,69.0,66.0,30.06,ESE,115,1.0,4.0,90,0.00,,,0.00,,2013-04-09 08:22:00,
2013-04-09 04:32:00,70.0,66.0,30.06,ESE,118,0.0,4.0,88,0.00,,,0.00,,2013-04-09 08:32:00,
2013-04-09 04:42:00,70.0,66.0,30.06,ESE,118,0.0,4.0,88,0.00,,,0.00,,2013-04-09 08:42:00,
2013-04-09 04:52:00,70.0,66.0,30.06,ESE,118,0.0,2.0,88,0.00,,,0.00,,2013-04-09 08:52:00,
2013-04-09 05:02:00,70.0,67.0,30.07,ESE,118,0.0,1.0,89,0.00,,,0.00,,2013-04-09 09:02:00,
2013-04-09 05:12:00,70.0,67.0,30.07,ESE,118,0.0,1.0,89,0.00,,,0.00,,2013-04-09 09:12:00,
2013-04-09 05:22:00,69.0,66.0,30.07,ESE,118,0.0,1.0,89,0.00,,,0.00,,2013-04-09 09:22:00,
2013-04-09 05:33:00,68.0,65.0,30.08,ESE,118,0.0,0.0,91,0.00,,,0.00,,2013-04-09 09:33:00,
2013-04-09 05:43:00,68.0,65.0,30.08,ESE,118,0.0,0.0,91,0.00,,,0.00,,2013-04-09 09:43:00,
2013-04-09 05:53:00,68.0,66.0,30.08,ESE,118,0.0,0.0,92,0.00,,,0.00,,2013-04-09 09:53:00,
2013-04-09 06:03:00,68.0,66.0,30.08,ESE,118,0.0,0.0,93,0.00,,,0.00,,2013-04-09 10:03:00,
2013-04-09 06:13:00,68.0,66.0,30.08,ESE,118,0.0,0.0,93,0.00,,,0.00,,2013-04-09 10:13:00,
2013-04-09 06:23:00,68.0,66.0,30.09,ESE,118,0.0,2.0,94,0.00,,,0.00,,2013-04-09 10:23:00,
2013-04-09 06:33:00,68.0,67.0,30.09,ESE,118,0.0,2.0,95,0.00,,,0.00,,2013-04-09 10:33:00,
2013-04-09 06:43:00,68.0,67.0,30.09,ESE,118,0.0,2.0,95,0.00,,,0.00,,2013-04-09 10:43:00,
2013-04-09 07:02:00,70.0,68.0,30.09,East,92,2.0,5.0,92,0.00,,,0.00,,2013-04-09 11:02:00,
2013-04-09 07:12:00,70.0,68.0,30.09,East,92,2.0,5.0,92,0.00,,,0.00,,2013-04-09 11:12:00,
2013-04-09 07:22:00,70.0,68.0,30.10,ESE,112,2.0,4.0,92,0.00,,,0.00,,2013-04-09 11:22:00,
2013-04-09 07:32:00,71.0,68.0,30.10,East,88,2.0,7.0,90,0.00,,,0.00,,2013-04-09 11:32:00,
2013-04-09 07:42:00,71.0,68.0,30.10,East,88,2.0,7.0,90,0.00,,,0.00,,2013-04-09 11:42:00,
2013-04-09 07:52:00,72.0,69.0,30.11,ESE,107,0.0,4.0,89,0.00,,,0.00,,2013-04-09 11:52:00,
2013-04-09 08:02:00,72.0,68.0,30.11,ESE,110,3.0,8.0,87,0.00,,,0.00,,2013-04-09 12:02:00,
2013-04-09 08:12:00,72.0,68.0,30.11,ESE,110,3.0,8.0,87,0.00,,,0.00,,2013-04-09 12:12:00,
2013-04-09 08:22:00,73.0,68.0,30.11,SE,125,2.0,7.0,85,0.00,,,0.00,,2013-04-09 12:22:00,
2013-04-09 08:32:00,74.0,68.0,30.12,ESE,119,3.0,10.0,83,0.00,,,0.00,,2013-04-09 12:32:00,
2013-04-09 08:42:00,74.0,68.0,30.12,ESE,119,3.0,10.0,83,0.00,,,0.00,,2013-04-09 12:42:00,
2013-04-09 08:53:00,75.0,68.0,30.12,ESE,122,3.0,11.0,80,0.00,,,0.00,,2013-04-09 12:53:00,
2013-04-09 09:03:00,75.0,68.0,30.12,ESE,103,3.0,9.0,80,0.00,,,0.00,,2013-04-09 13:03:00,
2013-04-09 09:12:00,75.0,68.0,30.12,ESE,103,3.0,9.0,80,0.00,,,0.00,,2013-04-09 13:12:00,
2013-04-09 09:23:00,75.0,68.0,30.13,ESE,111,2.0,9.0,80,0.00,,,0.00,,2013-04-09 13:23:00,
2013-04-09 09:33:00,75.0,68.0,30.14,ESE,116,4.0,13.0,79,0.00,,,0.00,,2013-04-09 13:33:00,
2013-04-09 09:43:00,75.0,68.0,30.14,ESE,116,4.0,13.0,79,0.00,,,0.00,,2013-04-09 13:43:00,
2013-04-09 09:53:00,76.0,69.0,30.14,SE,129,5.0,13.0,78,0.00,,,0.00,,2013-04-09 13:53:00,
2013-04-09 10:03:00,76.0,68.0,30.15,ENE,78,5.0,11.0,77,0.00,,,0.00,,2013-04-09 14:03:00,
2013-04-09 10:12:00,76.0,68.0,30.15,ENE,78,5.0,11.0,77,0.00,,,0.00,,2013-04-09 14:12:00,
2013-04-09 10:22:00,77.0,69.0,30.15,SE,130,3.0,11.0,77,0.00,,,0.00,,2013-04-09 14:22:00,
2013-04-09 10:32:00,78.0,69.0,30.16,East,85,6.0,13.0,74,0.00,,,0.00,,2013-04-09 14:32:00,
2013-04-09 10:43:00,78.0,69.0,30.16,East,85,6.0,13.0,74,0.00,,,0.00,,2013-04-09 14:43:00,
2013-04-09 10:52:00,78.0,69.0,30.16,ESE,108,8.0,12.0,73,0.00,,,0.00,,2013-04-09 14:52:00,
2013-04-09 11:02:00,79.0,69.0,30.16,East,90,8.0,14.0,72,0.00,,,0.00,,2013-04-09 15:02:00,
2013-04-09 11:13:00,79.0,69.0,30.16,East,90,8.0,14.0,72,0.00,,,0.00,,2013-04-09 15:13:00,
2013-04-09 11:23:00,80.0,70.0,30.16,SE,138,7.0,15.0,71,0.00,,,0.00,,2013-04-09 15:23:00,
2013-04-09 11:33:00,80.0,70.0,30.16,East,99,5.0,14.0,72,0.00,,,0.00,,2013-04-09 15:33:00,
2013-04-09 11:43:00,80.0,70.0,30.16,East,99,5.0,14.0,72,0.00,,,0.00,,2013-04-09 15:43:00,
2013-04-09 11:54:00,80.0,69.0,30.16,East,90,5.0,14.0,70,0.00,,,0.00,,2013-04-09 15:54:00,
2013-04-09 12:03:00,80.0,70.0,30.16,ESE,111,6.0,14.0,72,0.00,,,0.00,,2013-04-09 16:03:00,
2013-04-09 12:13:00,80.0,70.0,30.16,ESE,111,6.0,14.0,72,0.00,,,0.00,,2013-04-09 16:13:00,
2013-04-09 12:23:00,79.0,69.0,30.16,East,94,6.0,14.0,72,0.00,,,0.00,,2013-04-09 16:23:00,
2013-04-09 12:33:00,79.0,69.0,30.16,East,94,6.0,14.0,72,0.00,,,0.00,,2013-04-09 16:33:00,
2013-04-09 12:42:00,79.0,69.0,30.16,East,94,6.0,14.0,72,0.00,,,0.00,,2013-04-09 16:42:00,
2013-04-09 12:54:00,78.0,69.0,30.16,ESE,116,7.0,14.0,74,0.00,,,0.00,,2013-04-09 16:54:00,
2013-04-09 13:02:00,79.0,70.0,30.15,ESE,106,3.0,11.0,75,0.00,,,0.00,,2013-04-09 17:02:00,
2013-04-09 13:13:00,79.0,70.0,30.15,ESE,106,3.0,11.0,75,0.00,,,0.00,,2013-04-09 17:13:00,
2013-04-09 13:23:00,78.0,69.0,30.15,East,90,7.0,15.0,74,0.00,,,0.00,,2013-04-09 17:23:00,
2013-04-09 13:32:00,78.0,69.0,30.15,East,91,4.0,12.0,73,0.00,,,0.00,,2013-04-09 17:32:00,
2013-04-09 13:43:00,78.0,69.0,30.15,East,91,4.0,12.0,73,0.00,,,0.00,,2013-04-09 17:43:00,
2013-04-09 13:54:00,78.0,69.0,30.15,East,99,5.0,10.0,75,0.00,,,0.00,,2013-04-09 17:54:00,
2013-04-09 14:02:00,78.0,69.0,30.15,ENE,71,6.0,12.0,74,0.00,,,0.00,,2013-04-09 18:02:00,
2013-04-09 14:13:00,78.0,69.0,30.15,ENE,71,6.0,12.0,74,0.00,,,0.00,,2013-04-09 18:13:00,
2013-04-09 14:23:00,79.0,70.0,30.15,SE,128,4.0,8.0,73,0.00,,,0.00,,2013-04-09 18:23:00,
2013-04-09 14:33:00,79.0,69.0,30.14,East,88,5.0,12.0,71,0.00,,,0.00,,2013-04-09 18:33:00,
2013-04-09 14:43:00,79.0,69.0,30.14,East,88,5.0,12.0,71,0.00,,,0.00,,2013-04-09 18:43:00,
2013-04-09 14:53:00,80.0,69.0,30.13,East,94,6.0,12.0,70,0.00,,,0.00,,2013-04-09 18:53:00,
2013-04-09 15:03:00,80.0,69.0,30.13,East,94,6.0,12.0,70,0.00,,,0.00,,2013-04-09 19:03:00,
2013-04-09 15:12:00,80.0,69.0,30.13,East,94,6.0,12.0,70,0.00,,,0.00,,2013-04-09 19:12:00,
2013-04-09 15:22:00,80.0,69.0,30.13,East,94,6.0,12.0,70,0.00,,,0.00,,2013-04-09 19:22:00,
2013-04-09 15:32:00,80.0,68.0,30.12,East,87,4.0,11.0,67,0.00,,,0.00,,2013-04-09 19:32:00,
2013-04-09 15:42:00,80.0,68.0,30.12,East,87,4.0,11.0,67,0.00,,,0.00,,2013-04-09 19:42:00,
2013-04-09 15:53:00,80.0,69.0,30.11,East,95,5.0,13.0,69,0.00,,,0.00,,2013-04-09 19:53:00,
2013-04-09 16:02:00,80.0,68.0,30.11,ENE,65,6.0,9.0,68,0.00,,,0.00,,2013-04-09 20:02:00,
2013-04-09 16:12:00,80.0,68.0,30.11,ENE,65,6.0,9.0,68,0.00,,,0.00,,2013-04-09 20:12:00,
2013-04-09 16:23:00,80.0,68.0,30.10,East,81,5.0,11.0,68,0.00,,,0.00,,2013-04-09 20:23:00,
2013-04-09 16:43:00,80.0,68.0,30.10,ENE,75,5.0,12.0,68,0.00,,,0.00,,2013-04-09 20:43:00,
2013-04-09 16:53:00,80.0,69.0,30.11,East,86,5.0,11.0,69,0.00,,,0.00,,2013-04-09 20:53:00,
2013-04-09 17:02:00,80.0,69.0,30.10,ESE,103,3.0,11.0,70,0.00,,,0.00,,2013-04-09 21:02:00,
2013-04-09 17:13:00,80.0,69.0,30.10,ESE,103,3.0,11.0,70,0.00,,,0.00,,2013-04-09 21:13:00,
2013-04-09 17:23:00,80.0,69.0,30.10,ESE,103,3.0,11.0,70,0.00,,,0.00,,2013-04-09 21:23:00,
2013-04-09 17:33:00,78.0,68.0,30.11,East,95,7.0,12.0,72,0.00,,,0.00,,2013-04-09 21:33:00,
2013-04-09 17:42:00,78.0,68.0,30.11,East,95,7.0,12.0,72,0.00,,,0.00,,2013-04-09 21:42:00,
2013-04-09 17:53:00,78.0,69.0,30.11,NE,40,4.0,9.0,73,0.00,,,0.00,,2013-04-09 21:53:00,
2013-04-09 18:03:00,77.0,68.0,30.11,ESE,103,5.0,9.0,74,0.00,,,0.00,,2013-04-09 22:03:00,
2013-04-09 18:13:00,77.0,68.0,30.11,ESE,103,5.0,9.0,74,0.00,,,0.00,,2013-04-09 22:13:00,
2013-04-09 18:23:00,77.0,68.0,30.11,East,83,5.0,10.0,74,0.00,,,0.00,,2013-04-09 22:23:00,
2013-04-09 18:33:00,77.0,69.0,30.11,ESE,117,4.0,10.0,76,0.00,,,0.00,,2013-04-09 22:33:00,
2013-04-09 18:42:00,77.0,69.0,30.11,ESE,117,4.0,10.0,76,0.00,,,0.00,,2013-04-09 22:42:00,
2013-04-09 18:54:00,76.0,68.0,30.11,East,92,4.0,11.0,77,0.00,,,0.00,,2013-04-09 22:54:00,
2013-04-09 19:03:00,76.0,68.0,30.11,NE,55,2.0,10.0,77,0.00,,,0.00,,2013-04-09 23:03:00,
2013-04-09 19:13:00,76.0,68.0,30.11,NE,55,2.0,10.0,77,0.00,,,0.00,,2013-04-09 23:13:00,
2013-04-09 19:23:00,75.0,68.0,30.11,ENE,65,5.0,9.0,78,0.00,,,0.00,,2013-04-09 23:23:00,
2013-04-09 19:32:00,75.0,68.0,30.11,ENE,78,6.0,10.0,79,0.00,,,0.00,,2013-04-09 23:32:00,
2013-04-09 19:42:00,75.0,68.0,30.11,ENE,78,6.0,10.0,79,0.00,,,0.00,,2013-04-09 23:42:00,
2013-04-09 19:53:00,74.0,67.0,30.11,ENE,61,3.0,10.0,80,0.00,,,0.00,,2013-04-09 23:53:00,
2013-04-09 20:03:00,74.0,67.0,30.11,ENE,61,3.0,10.0,80,0.00,,,0.00,,2013-04-10 00:03:00,
2013-04-09 20:12:00,74.0,67.0,30.11,ENE,61,3.0,10.0,80,0.00,,,0.00,,2013-04-10 00:12:00,
2013-04-09 20:23:00,74.0,68.0,30.11,East,79,3.0,8.0,82,0.00,,,0.00,,2013-04-10 00:23:00,
2013-04-09 20:33:00,74.0,68.0,30.11,East,80,4.0,10.0,81,0.00,,,0.00,,2013-04-10 00:33:00,
2013-04-09 20:42:00,74.0,68.0,30.11,East,80,4.0,10.0,81,0.00,,,0.00,,2013-04-10 00:42:00,
2013-04-09 20:53:00,74.0,68.0,30.11,East,94,4.0,8.0,82,0.00,,,0.00,,2013-04-10 00:53:00,
2013-04-09 21:02:00,73.0,67.0,30.11,NE,48,2.0,8.0,82,0.00,,,0.00,,2013-04-10 01:02:00,
2013-04-09 21:12:00,73.0,67.0,30.12,NE,42,2.0,8.0,82,0.00,,,0.00,,2013-04-10 01:12:00,
2013-04-09 21:23:00,73.0,67.0,30.12,NE,42,2.0,8.0,82,0.00,,,0.00,,2013-04-10 01:23:00,
2013-04-09 21:32:00,73.0,67.0,30.12,East,88,2.0,8.0,81,0.00,,,0.00,,2013-04-10 01:32:00,
2013-04-09 21:43:00,73.0,67.0,30.12,East,88,2.0,8.0,81,0.00,,,0.00,,2013-04-10 01:43:00,
2013-04-09 21:53:00,74.0,68.0,30.12,East,91,4.0,8.0,81,0.00,,,0.00,,2013-04-10 01:53:00,
2013-04-09 22:02:00,74.0,67.0,30.12,NE,55,5.0,11.0,80,0.00,,,0.00,,2013-04-10 02:02:00,
2013-04-09 22:13:00,74.0,67.0,30.12,NE,55,5.0,11.0,80,0.00,,,0.00,,2013-04-10 02:13:00,
2013-04-09 22:22:00,74.0,67.0,30.12,East,93,3.0,11.0,79,0.00,,,0.00,,2013-04-10 02:22:00,
2013-04-09 22:32:00,74.0,67.0,30.12,ENE,75,4.0,11.0,79,0.00,,,0.00,,2013-04-10 02:32:00,
2013-04-09 22:43:00,74.0,67.0,30.12,ENE,75,4.0,11.0,79,0.00,,,0.00,,2013-04-10 02:43:00,
2013-04-09 22:53:00,74.0,67.0,30.12,East,101,3.0,9.0,79,0.00,,,0.00,,2013-04-10 02:53:00,
2013-04-09 23:03:00,74.0,67.0,30.12,ENE,73,4.0,10.0,79,0.00,,,0.00,,2013-04-10 03:03:00,
2013-04-09 23:12:00,74.0,67.0,30.12,ENE,73,4.0,10.0,79,0.00,,,0.00,,2013-04-10 03:12:00,
2013-04-09 23:22:00,74.0,67.0,30.12,East,86,5.0,10.0,80,0.00,,,0.00,,2013-04-10 03:22:00,
2013-04-09 23:33:00,74.0,68.0,30.12,NE,54,4.0,9.0,81,0.00,,,0.00,,2013-04-10 03:33:00,
2013-04-09 23:43:00,74.0,68.0,30.12,NE,54,4.0,9.0,81,0.00,,,0.00,,2013-04-10 03:43:00,
2013-04-09 23:53:00,73.0,67.0,30.12,East,81,2.0,6.0,82,0.00,,,0.00,,2013-04-10 03:53:00,